Погода в Мей Пен

Ямайка     17°58′08″N   77°14′41″W
темп.,
°C
ветер,
м/с
пор.,
м/с
влажн.,
%
обл.,
%
осадки,
мм/ч
давл.,
гПа
погр.,
м
15 апреля, чт
чт1501:00+18с336364 0.0 101438
04:00+18с338461 0.0 101339
07:00+21с347822 0.0 1015129
10:00+29в223569 0.0 10151271
13:00+33ююв43255 0.0 10111963
16:00+30ююв43404 0.0 10101227
19:00+22юв11816 0.0 101312
22:00+21зсз228795 0.0 101518
16 апреля, пт
пт1601:00+20ссз229140 0.0 101317
04:00+19с22895 0.0 101325
07:00+21с227294 0.0 101482
10:00+29юв34485 0.0 10141162
13:00+32юв53371 0.0 10111669
16:00+29юв55543 0.0 1011980
19:00+23вюв22834 0.0 101327
22:00+21сз11905 0.0 101414
17 апреля, сб
сб1701:00+20ссз229257 0.0 101423
04:00+20с118654 0.0 101313
07:00+23с227479 0.0 1015107
10:00+30вюв455231 0.0 10151318
13:00+32юв664913 0.0 10131614
16:00+29юв675913 0.0 10131220
19:00+23юв249289 0.0 1014131
22:00+23вюв149375 0.0 1016130
18 апреля, вс
вс1801:00+21св119485 0.0 101561
04:00+21св129761 0.0 101486
07:00+24в268334 0.1 1016456
10:00+30юв69527 0.0 10161461
13:00+31юв784822 0.0 10151456
16:00+29юв68521 0.0 10141275
19:00+23вюв25917 0.0 1015148
22:00+22с119410 0.0 101735
19 апреля, пн
пн1901:00+21ссз229447 0.0 101647
04:00+20с119576 0.0 101541
07:00+23св128218 0.0 1017135
10:00+29юв694893 0.0 10161310
13:00+31юв71043100 0.0 10151353
16:00+28юв686193 0.0 10141105
19:00+23юв2576100 0.0 1015165
22:00+21вюв148982 0.0 1016125